Simultaneous Nadir Overpasses (SNOs) Predictions

Prediction of SNOs between AQUA and GOES-15 Satellite Orbit:

Table of predicted SNOs for the next 14.0 days since TLE Epoch: 3/18/2022
Index Date Time (AQUA) AQUA Lat,Lon GOES-15 Lat,Lon Distance(km) Time Diff (sec)
1 03/18/2022 21:57:02 0.58,-125.07 -0.08,-128.09 344.22 80
2 03/19/2022 10:18:14 0.55,-130.21 0.08,-128.10 239.76 80
3 03/21/2022 10:05:56 -0.11,-127.22 0.08,-128.16 106.90 80
4 03/21/2022 22:27:19 -0.96,-132.41 -0.09,-128.18 480.30 80
5 03/23/2022 09:53:39 -0.78,-124.24 0.09,-128.21 452.81 80
6 03/23/2022 22:15:00 -0.34,-129.41 -0.09,-128.23 134.55 80
7 03/25/2022 22:02:41 0.29,-126.42 -0.10,-128.27 210.62 80
8 03/26/2022 10:23:55 0.77,-131.57 0.10,-128.28 373.64 80
9 03/28/2022 10:11:35 0.18,-128.56 0.10,-128.32 28.87 80
10 03/30/2022 09:59:16 -0.48,-125.57 0.11,-128.36 316.27 80
11 03/30/2022 22:20:38 -0.63,-130.75 -0.11,-128.37 271.52 80
